Weather in Yushta

Russia / Ryazan Oblast     54°23′01″N   40°50′08″E
temp.,
°C
wind,
m/s
gust,
m/s
humid.,
%
clouds,
%
prec.,
mm/h
press.,
hPa
HPBL,
m
27 february, sat
sat2700:00+2w7159399 0.1 1001743
03:00+1w71492100 0.1 1001756
06:00+1w81592100 0.1 1000902
09:00−5nnw8128899 0.8 1002889
12:00−8nnw71186100 0.1 1005756
15:00−7nnw61087100 0.1 1008689
18:00−9nnw3991100 0.0 1010281
21:00−12nnw369394 0.0 1012116
28 february, sun
sun2800:00−13nnw34943 0.0 101382
03:00−14nnw33952 0.0 101550
06:00−15nnw23950 0.0 101525
09:00−12nnw249429 0.0 1016210
12:00−8nw238894 0.0 1016443
15:00−6nnw348997 0.1 1016524
18:00−6nnw2394100 0.1 101791
21:00−7n1295100 0.1 101929
1 march, mon
mon100:00−7ne2296100 0.1 102038
03:00−11ene119799 0.1 102221
06:00−13nnw119768 0.0 102321
09:00−10e009464 0.0 102430
12:00−6ssw119033 0.0 1024230
15:00−4sw349260 0.0 1023340
18:00−5sw359691 0.1 1022111
21:00−3sw589394 0.1 1021248
2 march, tue
tue200:00−2sw61194100 0.1 1017393
03:000wsw61293100 0.3 1014499
06:00+1wsw71392100 0.0 1010750
09:000w71298100 0.8 1008627
12:00+1wnw611100100 0.3 1007601
15:00+1nw5119599 0.4 1007693
18:00−1nw5138897 0.1 1008468
21:00−2nw5129497 0.1 1009486
3 march, wed
wed300:00−2nw5119393 0.1 1010725
03:00−3nw5129596 0.4 1011511
06:00−5nw5128999 0.2 1012621
09:00−4nnw6129095 0.2 1014663
12:00−3nnw6128498 0.0 1016808
15:00−1nw698464 0.1 10171055
18:00−3wnw4992100 0.1 1017251
21:00−5wnw379391 0.1 1018146